| time (UTC) | temp C | wind direction | speed KPH | gust KPH | rain 1hr cm | rain 24hr cm | rain mn cm | humidity % | barometer mb |
| 20260906113703 | 25 | 51 | 0.0 | 0.0 | 0.00 | 0.00 | 0.00 | 88 | 1012.7 |
| 20260906113424 | 25 | 53 | 0.0 | 0.0 | 0.00 | 0.00 | 0.00 | 88 | 1012.7 |
| 20260906112703 | 25 | 53 | 0.0 | 0.0 | 0.00 | 0.00 | 0.00 | 88 | 1012.7 |
| 20260906112205 | 25 | 53 | 0.0 | 0.0 | 0.00 | 0.00 | 0.00 | 88 | 1012.5 |
| 20260906111705 | 25 | 55 | 0.0 | 1.6 | 0.00 | 0.00 | 0.00 | 88 | 1012.4 |
| 20260906111427 | 25 | 55 | 0.0 | 1.6 | 0.00 | 0.00 | 0.00 | 88 | 1012.4 |
| 20260906110703 | 25 | 22 | 0.0 | 1.6 | 0.00 | 0.00 | 0.00 | 88 | 1012.3 |
| 20260906110434 | 25 | 22 | 0.0 | 1.6 | 0.00 | 0.00 | 0.00 | 88 | 1012.3 |
| 20260906105703 | 25 | 22 | 0.0 | 0.0 | 0.00 | 0.00 | 0.00 | 88 | 1012.3 |
| 20260906105203 | 25 | 22 | 0.0 | 0.0 | 0.00 | 0.00 | 0.00 | 88 | 1012.1 |
| 20260906104703 | 25 | 22 | 0.0 | 0.0 | 0.00 | 0.00 | 0.00 | 88 | 1012.1 |
| 20260906104202 | 25 | 22 | 0.0 | 0.0 | 0.00 | 0.00 | 0.00 | 88 | 1012.1 |
| 20260906103701 | 25 | 22 | 0.0 | 0.0 | 0.00 | 0.00 | 0.00 | 88 | 1012.1 |
| 20260906103428 | 25 | 22 | 0.0 | 0.0 | 0.00 | 0.00 | 0.00 | 88 | 1012.1 |
| 20260906102701 | 25 | 22 | 0.0 | 1.6 | 0.00 | 0.00 | 0.00 | 88 | 1012.0 |
| 20260906102202 | 25 | 22 | 0.0 | 1.6 | 0.00 | 0.00 | 0.00 | 88 | 1011.9 |
| 20260906101701 | 25 | 22 | 0.0 | 0.0 | 0.00 | 0.00 | 0.00 | 88 | 1011.9 |
| 20260906101426 | 25 | 22 | 0.0 | 0.0 | 0.00 | 0.00 | 0.00 | 88 | 1011.9 |
| 20260906100702 | 25 | 22 | 0.0 | 0.0 | 0.00 | 0.00 | 0.00 | 88 | 1012.0 |
| 20260906100203 | 25 | 22 | 0.0 | 0.0 | 0.00 | 0.00 | 0.00 | 87 | 1012.0 |
| 20260906095919 | 25 | 22 | 0.0 | 0.0 | 0.00 | 0.00 | 0.00 | 87 | 1011.9 |
| 20260906095151 | 25 | 22 | 0.0 | 0.0 | 0.00 | 0.00 | 0.00 | 87 | 1011.9 |
| 20260906094646 | 25 | 22 | 0.0 | 0.0 | 0.00 | 0.00 | 0.00 | 87 | 1011.9 |
| 20260906094139 | 25 | 22 | 0.0 | 0.0 | 0.00 | 0.00 | 0.00 | 87 | 1011.8 |
| 20260906093904 | 25 | 22 | 0.0 | 0.0 | 0.00 | 0.00 | 0.00 | 87 | 1011.7 |
| 20260906093133 | 25 | 22 | 0.0 | 0.0 | 0.00 | 0.00 | 0.00 | 87 | 1011.7 |
| 20260906092633 | 25 | 22 | 0.0 | 0.0 | 0.00 | 0.00 | 0.00 | 87 | 1011.6 |
| 20260906092132 | 25 | 22 | 0.0 | 0.0 | 0.00 | 0.00 | 0.00 | 87 | 1011.4 |
| 20260906091633 | 25 | 22 | 0.0 | 0.0 | 0.00 | 0.00 | 0.00 | 87 | 1011.4 |
| 20260906091355 | 25 | 22 | 0.0 | 0.0 | 0.00 | 0.00 | 0.00 | 87 | 1011.3 |
| 20260906090859 | 25 | 22 | 0.0 | 0.0 | 0.00 | 0.00 | 0.00 | 87 | 1011.4 |
| 20260906090132 | 25 | 22 | 0.0 | 0.0 | 0.00 | 0.00 | 0.00 | 88 | 1011.5 |
| 20260906085632 | 25 | 22 | 0.0 | 1.6 | 0.00 | 0.00 | 0.00 | 88 | 1011.5 |
| 20260906085353 | 25 | 22 | 0.0 | 1.6 | 0.00 | 0.00 | 0.00 | 88 | 1011.5 |
| 20260906084631 | 25 | 22 | 0.0 | 1.6 | 0.00 | 0.00 | 0.00 | 88 | 1011.5 |
| 20260906084356 | 25 | 22 | 0.0 | 0.0 | 0.00 | 0.00 | 0.00 | 88 | 1011.5 |
| 20260906083630 | 25 | 22 | 0.0 | 0.0 | 0.00 | 0.00 | 0.00 | 88 | 1011.5 |
| 20260906083129 | 25 | 22 | 0.0 | 0.0 | 0.00 | 0.00 | 0.00 | 88 | 1011.5 |
| 20260906082630 | 25 | 22 | 0.0 | 0.0 | 0.00 | 0.00 | 0.00 | 87 | 1011.5 |
| 20260906082129 | 25 | 22 | 0.0 | 3.2 | 0.00 | 0.00 | 0.00 | 87 | 1011.6 |
| 20260906081629 | 25 | 22 | 0.0 | 3.2 | 0.00 | 0.00 | 0.00 | 87 | 1011.8 |
| 20260906081132 | 25 | 22 | 0.0 | 0.0 | 0.00 | 0.00 | 0.00 | 87 | 1011.7 |
| 20260906080627 | 25 | 22 | 0.0 | 0.0 | 0.00 | 0.00 | 0.00 | 86 | 1011.6 |
| 20260906080345 | 26 | 22 | 0.0 | 0.0 | 0.00 | 0.00 | 0.00 | 86 | 1011.6 |
| 20260906075623 | 26 | 22 | 0.0 | 0.0 | 0.00 | 0.00 | 0.00 | 86 | 1011.6 |
| 20260906075120 | 26 | 22 | 0.0 | 0.0 | 0.00 | 0.00 | 0.00 | 85 | 1011.7 |
| 20260906074844 | 26 | 22 | 0.0 | 0.0 | 0.00 | 0.00 | 0.00 | 85 | 1011.7 |
| 20260906074116 | 26 | 22 | 0.0 | 0.0 | 0.00 | 0.00 | 0.00 | 85 | 1011.7 |
| 20260906073616 | 26 | 22 | 0.0 | 0.0 | 0.00 | 0.00 | 0.00 | 85 | 1011.7 |
| 20260906073115 | 26 | 22 | 0.0 | 0.0 | 0.00 | 0.00 | 0.00 | 85 | 1011.7 |
| 20260906072615 | 26 | 22 | 0.0 | 0.0 | 0.00 | 0.00 | 0.00 | 85 | 1011.9 |
| 20260906072112 | 26 | 22 | 0.0 | 0.0 | 0.00 | 0.00 | 0.00 | 84 | 1011.9 |
| 20260906071610 | 26 | 22 | 0.0 | 0.0 | 0.00 | 0.00 | 0.00 | 84 | 1011.9 |
| 20260906071108 | 26 | 22 | 0.0 | 0.0 | 0.00 | 0.00 | 0.00 | 84 | 1011.9 |
| 20260906070606 | 26 | 22 | 0.0 | 0.0 | 0.00 | 0.00 | 0.00 | 84 | 1012.0 |
| 20260906070106 | 26 | 22 | 0.0 | 0.0 | 0.00 | 0.00 | 0.00 | 84 | 1012.1 |
| 20260906065603 | 26 | 22 | 0.0 | 0.0 | 0.00 | 0.00 | 0.00 | 84 | 1012.2 |
| 20260906065102 | 26 | 22 | 0.0 | 0.0 | 0.00 | 0.00 | 0.00 | 84 | 1012.2 |
| 20260906064602 | 26 | 22 | 0.0 | 0.0 | 0.00 | 0.00 | 0.00 | 84 | 1012.3 |
| 20260906064323 | 26 | 22 | 0.0 | 1.6 | 0.00 | 0.00 | 0.00 | 84 | 1012.3 |
| 20260906063602 | 26 | 22 | 0.0 | 1.6 | 0.00 | 0.00 | 0.00 | 84 | 1012.3 |
| 20260906063102 | 26 | 22 | 0.0 | 0.0 | 0.00 | 0.00 | 0.00 | 84 | 1012.2 |
| 20260906062600 | 26 | 22 | 0.0 | 0.0 | 0.00 | 0.00 | 0.00 | 84 | 1012.2 |
| 20260906062102 | 26 | 22 | 0.0 | 0.0 | 0.00 | 0.00 | 0.00 | 84 | 1012.3 |
| 20260906061601 | 26 | 22 | 0.0 | 3.2 | 0.00 | 0.00 | 0.00 | 85 | 1012.2 |
| 20260906061054 | 26 | 22 | 0.0 | 3.2 | 0.00 | 0.00 | 0.00 | 85 | 1012.2 |
| 20260906060554 | 26 | 22 | 0.0 | 0.0 | 0.00 | 0.00 | 0.00 | 86 | 1012.3 |
| 20260906060054 | 26 | 22 | 0.0 | 0.0 | 0.00 | 0.00 | 0.00 | 86 | 1012.6 |
| 20260906055552 | 26 | 22 | 0.0 | 3.2 | 0.00 | 0.00 | 0.00 | 86 | 1012.7 |
| 20260906055315 | 26 | 22 | 0.0 | 4.8 | 0.00 | 0.00 | 0.00 | 87 | 1012.5 |
| 20260906054810 | 27 | 14 | 0.0 | 4.8 | 0.00 | 0.00 | 0.00 | 87 | 1012.5 |
| 20260906054312 | 27 | 346 | 0.0 | 1.6 | 0.00 | 0.00 | 0.00 | 87 | 1012.4 |
| 20260906053547 | 27 | 346 | 0.0 | 0.0 | 0.00 | 0.00 | 0.00 | 88 | 1012.3 |
| 20260906053043 | 27 | 346 | 0.0 | 1.6 | 0.00 | 0.00 | 0.00 | 87 | 1012.4 |
| 20260906052540 | 27 | 346 | 0.0 | 3.2 | 0.00 | 0.00 | 0.00 | 88 | 1012.5 |
| 20260906052038 | 27 | 346 | 0.0 | 4.8 | 0.00 | 0.00 | 0.00 | 88 | 1012.6 |
| 20260906051801 | 28 | 319 | 0.0 | 4.8 | 0.00 | 0.00 | 0.00 | 88 | 1012.7 |
| 20260906051257 | 28 | 249 | 0.0 | 3.2 | 0.00 | 0.00 | 0.00 | 88 | 1012.8 |
| 20260906050534 | 28 | 249 | 0.0 | 1.6 | 0.00 | 0.00 | 0.00 | 88 | 1012.5 |
| 20260906050034 | 28 | 249 | 0.0 | 1.6 | 0.00 | 0.00 | 0.00 | 88 | 1012.5 |
| 20260906045532 | 28 | 248 | 0.0 | 3.2 | 0.00 | 0.00 | 0.00 | 88 | 1012.5 |
| 20260906045030 | 28 | 248 | 1.6 | 4.8 | 0.00 | 0.00 | 0.00 | 88 | 1012.4 |
| 20260906044530 | 28 | 246 | 1.6 | 4.8 | 0.00 | 0.00 | 0.00 | 88 | 1012.4 |
| 20260906044029 | 28 | 252 | 1.6 | 9.7 | 0.00 | 0.00 | 0.00 | 88 | 1012.5 |
| 20260906043530 | 28 | 248 | 3.2 | 9.7 | 0.00 | 0.00 | 0.00 | 88 | 1012.5 |
| 20260906043029 | 28 | 254 | 3.2 | 9.7 | 0.00 | 0.00 | 0.00 | 87 | 1012.7 |
| 20260906042527 | 28 | 224 | 3.2 | 9.7 | 0.00 | 0.00 | 0.00 | 87 | 1012.7 |
| 20260906042022 | 28 | 248 | 1.6 | 8.0 | 0.00 | 0.00 | 0.00 | 87 | 1012.8 |
| 20260906041516 | 28 | 250 | 1.6 | 8.0 | 0.00 | 0.00 | 0.00 | 87 | 1012.8 |
| 20260906041009 | 28 | 247 | 1.6 | 8.0 | 0.00 | 0.00 | 0.00 | 87 | 1012.8 |
| 20260906040728 | 28 | 248 | 1.6 | 6.4 | 0.00 | 0.00 | 0.00 | 87 | 1012.7 |
| 20260906040227 | 28 | 254 | 1.6 | 6.4 | 0.00 | 0.00 | 0.00 | 87 | 1012.7 |
| 20260906035507 | 28 | 291 | 1.6 | 11.3 | 0.00 | 0.00 | 0.00 | 87 | 1012.8 |
| 20260906035005 | 28 | 248 | 3.2 | 12.9 | 0.00 | 0.00 | 0.00 | 86 | 1012.8 |
| 20260906034503 | 28 | 244 | 3.2 | 12.9 | 0.00 | 0.00 | 0.00 | 86 | 1012.8 |
| 20260906034002 | 28 | 264 | 3.2 | 11.3 | 0.00 | 0.00 | 0.00 | 86 | 1012.8 |
| 20260906033502 | 28 | 242 | 3.2 | 14.5 | 0.00 | 0.00 | 0.00 | 86 | 1012.9 |
| 20260906033003 | 28 | 255 | 1.6 | 14.5 | 0.00 | 0.00 | 0.00 | 86 | 1012.8 |
| 20260906032502 | 28 | 246 | 1.6 | 11.3 | 0.00 | 0.00 | 0.00 | 86 | 1012.8 |
| 20260906032006 | 29 | 247 | 3.2 | 14.5 | 0.00 | 0.00 | 0.00 | 85 | 1012.9 |
| 20260906031502 | 29 | 255 | 4.8 | 14.5 | 0.00 | 0.00 | 0.00 | 85 | 1012.9 |
| 20260906031002 | 29 | 245 | 3.2 | 9.7 | 0.00 | 0.00 | 0.00 | 85 | 1012.8 |
| 20260906030503 | 29 | 229 | 1.6 | 6.4 | 0.00 | 0.00 | 0.00 | 85 | 1012.9 |
| 20260906030002 | 29 | 216 | 0.0 | 4.8 | 0.00 | 0.00 | 0.00 | 85 | 1012.9 |
| 20260906025725 | 29 | 257 | 0.0 | 3.2 | 0.00 | 0.00 | 0.00 | 85 | 1013.2 |
| 20260906025224 | 29 | 257 | 0.0 | 3.2 | 0.00 | 0.00 | 0.00 | 85 | 1013.4 |
| 20260906024502 | 29 | 257 | 0.0 | 3.2 | 0.00 | 0.00 | 0.00 | 85 | 1013.2 |
| 20260906024003 | 29 | 257 | 1.6 | 6.4 | 0.00 | 0.00 | 0.00 | 84 | 1013.3 |
| 20260906023502 | 29 | 252 | 3.2 | 11.3 | 0.00 | 0.00 | 0.00 | 85 | 1013.1 |
| 20260906023229 | 29 | 256 | 3.2 | 11.3 | 0.00 | 0.00 | 0.00 | 84 | 1012.8 |
| 20260906022501 | 29 | 211 | 3.2 | 14.5 | 0.00 | 0.00 | 0.00 | 84 | 1012.7 |
| 20260906022002 | 29 | 273 | 4.8 | 14.5 | 0.00 | 0.00 | 0.00 | 84 | 1012.3 |
| 20260906021502 | 29 | 223 | 3.2 | 11.3 | 0.00 | 0.00 | 0.00 | 84 | 1011.9 |
| 20260906021005 | 29 | 227 | 4.8 | 14.5 | 0.00 | 0.00 | 0.00 | 84 | 1012.1 |
| 20260906020725 | 29 | 259 | 4.8 | 14.5 | 0.00 | 0.00 | 0.00 | 84 | 1012.1 |
| 20260906015504 | 29 | 242 | 4.8 | 11.3 | 0.00 | 0.00 | 0.00 | 84 | 1011.3 |
| 20260906015002 | 29 | 224 | 4.8 | 11.3 | 0.00 | 0.00 | 0.00 | 84 | 1011.0 |
| 20260906014501 | 29 | 192 | 4.8 | 12.9 | 0.00 | 0.00 | 0.00 | 84 | 1011.2 |
| 20260906014002 | 29 | 155 | 4.8 | 12.9 | 0.00 | 0.00 | 0.00 | 84 | 1011.4 |
| 20260906013501 | 29 | 201 | 4.8 | 9.7 | 0.00 | 0.00 | 0.00 | 84 | 1011.5 |
| 20260906013003 | 29 | 213 | 3.2 | 8.0 | 0.00 | 0.00 | 0.00 | 84 | 1011.6 |
| 20260906012501 | 28 | 198 | 1.6 | 11.3 | 0.00 | 0.00 | 0.00 | 85 | 1011.8 |
| 20260906012004 | 28 | 214 | 1.6 | 11.3 | 0.00 | 0.00 | 0.00 | 85 | 1012.0 |
| 20260906011726 | 28 | 204 | 1.6 | 8.0 | 0.00 | 0.00 | 0.00 | 85 | 1012.3 |
| 20260906011003 | 28 | 217 | 1.6 | 8.0 | 0.00 | 0.00 | 0.00 | 85 | 1012.2 |
| 20260906010502 | 28 | 240 | 1.6 | 12.9 | 0.00 | 0.00 | 0.00 | 85 | 1012.3 |
| 20260906010002 | 28 | 240 | 1.6 | 12.9 | 0.00 | 0.00 | 0.00 | 85 | 1012.5 |
| 20260906005726 | 28 | 197 | 0.0 | 3.2 | 0.00 | 0.00 | 0.00 | 85 | 1012.6 |
| 20260906004957 | 28 | 240 | 0.0 | 3.2 | 0.00 | 0.00 | 0.00 | 85 | 1012.8 |
| 20260906004456 | 28 | 240 | 0.0 | 4.8 | 0.00 | 0.00 | 0.00 | 85 | 1012.9 |
| 20260906003454 | 28 | 244 | 0.0 | 4.8 | 0.00 | 0.00 | 0.00 | 85 | 1012.9 |
| 20260906002954 | 28 | 256 | 0.0 | 4.8 | 0.00 | 0.00 | 0.00 | 84 | 1012.8 |
| 20260906002456 | 28 | 243 | 0.0 | 4.8 | 0.00 | 0.00 | 0.00 | 84 | 1012.8 |
| 20260906001955 | 28 | 234 | 0.0 | 4.8 | 0.00 | 0.00 | 0.00 | 84 | 1012.8 |
| 20260906001454 | 28 | 213 | 0.0 | 1.6 | 0.00 | 0.00 | 0.00 | 84 | 1013.0 |
| 20260906000952 | 29 | 225 | 0.0 | 4.8 | 0.00 | 0.00 | 0.00 | 84 | 1013.0 |
| 20260906000712 | 29 | 234 | 0.0 | 8.0 | 0.00 | 0.00 | 0.00 | 84 | 1013.0 |
| 20260905235950 | 28 | 259 | 1.6 | 8.0 | 0.00 | 0.00 | 0.00 | 84 | 1013.0 |
| 20260905235715 | 29 | 246 | 1.6 | 8.0 | 0.00 | 0.00 | 0.00 | 84 | 1013.0 |
| 20260905234950 | 28 | 249 | 1.6 | 4.8 | 0.00 | 0.00 | 0.00 | 83 | 1012.8 |
| 20260905234445 | 29 | 229 | 1.6 | 6.4 | 0.00 | 0.00 | 0.00 | 83 | 1012.7 |
| 20260905233946 | 29 | 225 | 1.6 | 6.4 | 0.00 | 0.00 | 0.00 | 83 | 1012.8 |
| 20260905233446 | 29 | 223 | 3.2 | 9.7 | 0.00 | 0.00 | 0.00 | 83 | 1012.9 |
| 20260905233209 | 29 | 180 | 3.2 | 14.5 | 0.00 | 0.00 | 0.00 | 82 | 1012.9 |
| 20260905232444 | 29 | 235 | 3.2 | 14.5 | 0.00 | 0.00 | 0.00 | 82 | 1012.8 |
| 20260905231942 | 29 | 208 | 3.2 | 8.0 | 0.00 | 0.00 | 0.00 | 82 | 1012.9 |
| 20260905231438 | 29 | 182 | 3.2 | 12.9 | 0.00 | 0.00 | 0.00 | 82 | 1012.7 |
| 20260905231205 | 29 | 234 | 4.8 | 12.9 | 0.00 | 0.00 | 0.00 | 81 | 1012.5 |
| 20260905230438 | 29 | 190 | 4.8 | 11.3 | 0.00 | 0.00 | 0.00 | 81 | 1012.5 |
| 20260905225936 | 29 | 28 | 3.2 | 14.5 | 0.00 | 0.00 | 0.00 | 81 | 1012.9 |
| 20260905225659 | 29 | 225 | 3.2 | 14.5 | 0.00 | 0.00 | 0.00 | 81 | 1012.5 |
| 20260905225157 | 29 | 113 | 3.2 | 14.5 | 0.00 | 0.00 | 0.00 | 80 | 1012.6 |
| 20260905224654 | 30 | 202 | 4.8 | 12.9 | 0.00 | 0.00 | 0.00 | 80 | 1012.6 |
| 20260905223934 | 30 | 200 | 4.8 | 12.9 | 0.00 | 0.00 | 0.00 | 80 | 1012.7 |
| 20260905223434 | 30 | 204 | 4.8 | 11.3 | 0.00 | 0.00 | 0.00 | 80 | 1012.5 |
| 20260905222930 | 30 | 173 | 4.8 | 12.9 | 0.00 | 0.00 | 0.00 | 80 | 1012.6 |
| 20260905222430 | 30 | 159 | 4.8 | 16.1 | 0.00 | 0.00 | 0.00 | 79 | 1012.6 |
| 20260905221930 | 30 | 207 | 4.8 | 17.7 | 0.00 | 0.00 | 0.00 | 79 | 1012.5 |
| 20260905221430 | 30 | 168 | 4.8 | 17.7 | 0.00 | 0.00 | 0.00 | 79 | 1012.5 |
| 20260905220930 | 30 | 151 | 4.8 | 12.9 | 0.00 | 0.00 | 0.00 | 79 | 1012.5 |
| 20260905220431 | 30 | 195 | 4.8 | 12.9 | 0.00 | 0.00 | 0.00 | 79 | 1012.4 |
| 20260905215931 | 30 | 204 | 4.8 | 14.5 | 0.00 | 0.00 | 0.00 | 78 | 1012.5 |
| 20260905215431 | 30 | 225 | 4.8 | 14.5 | 0.00 | 0.00 | 0.00 | 78 | 1012.4 |
| 20260905214931 | 30 | 209 | 4.8 | 12.9 | 0.00 | 0.00 | 0.00 | 78 | 1012.5 |
| 20260905214655 | 31 | 180 | 4.8 | 12.9 | 0.00 | 0.00 | 0.00 | 77 | 1012.5 |
| 20260905213930 | 31 | 186 | 4.8 | 12.9 | 0.00 | 0.00 | 0.00 | 78 | 1012.5 |
| 20260905213430 | 31 | 256 | 4.8 | 9.7 | 0.00 | 0.00 | 0.00 | 76 | 1012.4 |
| 20260905212930 | 31 | 198 | 4.8 | 12.9 | 0.00 | 0.00 | 0.00 | 77 | 1012.4 |
| 20260905212430 | 31 | 198 | 3.2 | 12.9 | 0.00 | 0.00 | 0.00 | 76 | 1012.4 |
| 20260905211930 | 31 | 189 | 4.8 | 9.7 | 0.00 | 0.00 | 0.00 | 77 | 1012.4 |
| 20260905211430 | 31 | 159 | 4.8 | 9.7 | 0.00 | 0.00 | 0.00 | 77 | 1012.3 |
| 20260905210930 | 31 | 170 | 4.8 | 9.7 | 0.00 | 0.00 | 0.00 | 76 | 1012.3 |
| 20260905210430 | 31 | 223 | 3.2 | 11.3 | 0.00 | 0.00 | 0.00 | 76 | 1012.2 |
| 20260905205930 | 31 | 214 | 4.8 | 14.5 | 0.00 | 0.00 | 0.00 | 76 | 1012.2 |
| 20260905205429 | 31 | 239 | 4.8 | 14.5 | 0.00 | 0.00 | 0.00 | 76 | 1012.3 |
| 20260905204929 | 31 | 223 | 4.8 | 14.5 | 0.00 | 0.00 | 0.00 | 76 | 1012.2 |
| 20260905204429 | 31 | 240 | 4.8 | 11.3 | 0.00 | 0.00 | 0.00 | 76 | 1012.1 |
| 20260905203929 | 31 | 215 | 4.8 | 12.9 | 0.00 | 0.00 | 0.00 | 76 | 1012.1 |
| 20260905203429 | 31 | 215 | 4.8 | 19.3 | 0.00 | 0.00 | 0.00 | 76 | 1012.0 |
| 20260905202930 | 31 | 211 | 4.8 | 19.3 | 0.00 | 0.00 | 0.00 | 75 | 1011.9 |
| 20260905202429 | 31 | 182 | 4.8 | 17.7 | 0.00 | 0.00 | 0.00 | 77 | 1011.9 |
| 20260905202156 | 31 | 35 | 6.4 | 17.7 | 0.00 | 0.00 | 0.00 | 76 | 1011.8 |
| 20260905201430 | 31 | 203 | 4.8 | 14.5 | 0.00 | 0.00 | 0.00 | 76 | 1011.8 |
| 20260905200930 | 31 | 227 | 4.8 | 9.7 | 0.00 | 0.00 | 0.00 | 74 | 1011.9 |
| 20260905200429 | 31 | 216 | 4.8 | 12.9 | 0.00 | 0.00 | 0.00 | 73 | 1012.0 |
| 20260905195929 | 31 | 203 | 3.2 | 12.9 | 0.00 | 0.00 | 0.00 | 73 | 1012.0 |
| 20260905195429 | 31 | 191 | 3.2 | 11.3 | 0.00 | 0.00 | 0.00 | 73 | 1011.9 |
| 20260905194930 | 31 | 148 | 3.2 | 11.3 | 0.00 | 0.00 | 0.00 | 72 | 1012.0 |
| 20260905194429 | 32 | 225 | 3.2 | 11.3 | 0.00 | 0.00 | 0.00 | 72 | 1012.0 |
| 20260905193929 | 31 | 307 | 3.2 | 8.0 | 0.00 | 0.00 | 0.00 | 73 | 1012.2 |
| 20260905193429 | 31 | 202 | 3.2 | 12.9 | 0.00 | 0.00 | 0.00 | 74 | 1012.3 |
| 20260905192429 | 31 | 169 | 4.8 | 12.9 | 0.00 | 0.00 | 0.00 | 74 | 1012.5 |
| 20260905191929 | 31 | 210 | 4.8 | 14.5 | 0.00 | 0.00 | 0.00 | 75 | 1012.5 |
| 20260905191430 | 31 | 216 | 4.8 | 14.5 | 0.00 | 0.00 | 0.00 | 75 | 1012.6 |
| 20260905190930 | 31 | 223 | 4.8 | 12.9 | 0.00 | 0.00 | 0.00 | 76 | 1012.7 |
| 20260905190430 | 31 | 153 | 6.4 | 16.1 | 0.00 | 0.00 | 0.00 | 74 | 1012.9 |
| 20260905185930 | 31 | 234 | 6.4 | 16.1 | 0.00 | 0.00 | 0.00 | 73 | 1013.0 |
| 20260905185429 | 31 | 172 | 4.8 | 12.9 | 0.00 | 0.00 | 0.00 | 75 | 1013.1 |
| 20260905184930 | 31 | 202 | 4.8 | 12.9 | 0.00 | 0.00 | 0.00 | 75 | 1013.1 |
| 20260905184430 | 31 | 254 | 3.2 | 9.7 | 0.00 | 0.00 | 0.00 | 75 | 1013.3 |
| 20260905183929 | 31 | 234 | 3.2 | 9.7 | 0.00 | 0.00 | 0.00 | 77 | 1013.3 |
| 20260905183429 | 31 | 200 | 4.8 | 14.5 | 0.00 | 0.00 | 0.00 | 77 | 1013.2 |
| 20260905182928 | 31 | 153 | 4.8 | 16.1 | 0.00 | 0.00 | 0.00 | 77 | 1013.3 |
| 20260905182429 | 30 | 186 | 6.4 | 19.3 | 0.00 | 0.00 | 0.00 | 78 | 1013.2 |
| 20260905181929 | 31 | 198 | 6.4 | 19.3 | 0.00 | 0.00 | 0.00 | 76 | 1013.4 |
| 20260905181430 | 31 | 126 | 6.4 | 17.7 | 0.00 | 0.00 | 0.00 | 76 | 1013.5 |
| 20260905180929 | 31 | 196 | 6.4 | 17.7 | 0.00 | 0.00 | 0.00 | 75 | 1013.6 |
| 20260905180429 | 31 | 200 | 4.8 | 11.3 | 0.00 | 0.00 | 0.00 | 74 | 1013.7 |
| 20260905180153 | 31 | 219 | 6.4 | 12.9 | 0.00 | 0.00 | 0.00 | 76 | 1013.8 |
| 20260905175429 | 31 | 188 | 6.4 | 14.5 | 0.00 | 0.00 | 0.00 | 75 | 1014.0 |
| 20260905174929 | 31 | 160 | 6.4 | 14.5 | 0.00 | 0.00 | 0.00 | 75 | 1014.0 |
| 20260905174430 | 31 | 151 | 4.8 | 14.5 | 0.00 | 0.00 | 0.00 | 75 | 1014.2 |
| 20260905173929 | 31 | 155 | 4.8 | 12.9 | 0.00 | 0.00 | 0.00 | 75 | 1014.2 |
| 20260905173654 | 31 | 154 | 4.8 | 12.9 | 0.00 | 0.00 | 0.00 | 75 | 1014.2 |
| 20260905172929 | 31 | 183 | 4.8 | 11.3 | 0.00 | 0.00 | 0.00 | 74 | 1014.3 |
| 20260905172654 | 31 | 153 | 4.8 | 12.9 | 0.00 | 0.00 | 0.00 | 74 | 1014.3 |
| 20260905171929 | 31 | 165 | 4.8 | 12.9 | 0.00 | 0.00 | 0.00 | 74 | 1014.3 |
| 20260905171650 | 31 | 118 | 4.8 | 14.5 | 0.00 | 0.00 | 0.00 | 75 | 1014.4 |
| 20260905170930 | 31 | 192 | 4.8 | 14.5 | 0.00 | 0.00 | 0.00 | 75 | 1014.4 |
| 20260905170657 | 31 | 163 | 4.8 | 9.7 | 0.00 | 0.00 | 0.00 | 75 | 1014.4 |
| 20260905165930 | 31 | 187 | 3.2 | 11.3 | 0.00 | 0.00 | 0.00 | 74 | 1014.5 |
| 20260905165429 | 31 | 184 | 3.2 | 11.3 | 0.00 | 0.00 | 0.00 | 75 | 1014.6 |
| 20260905165149 | 31 | 182 | 4.8 | 11.3 | 0.00 | 0.00 | 0.00 | 75 | 1014.6 |
| 20260905164430 | 31 | 198 | 4.8 | 11.3 | 0.00 | 0.00 | 0.00 | 76 | 1014.8 |
| 20260905163929 | 31 | 148 | 3.2 | 11.3 | 0.00 | 0.00 | 0.00 | 75 | 1014.8 |
| 20260905163429 | 31 | 215 | 4.8 | 12.9 | 0.00 | 0.00 | 0.00 | 77 | 1014.9 |
| 20260905162651 | 30 | 182 | 6.4 | 14.5 | 0.00 | 0.00 | 0.00 | 77 | 1015.1 |
| 20260905161929 | 31 | 171 | 4.8 | 12.9 | 0.00 | 0.00 | 0.00 | 76 | 1015.1 |
| 20260905161429 | 31 | 118 | 3.2 | 11.3 | 0.00 | 0.00 | 0.00 | 77 | 1015.2 |
| 20260905160429 | 30 | 168 | 3.2 | 11.3 | 0.00 | 0.00 | 0.00 | 79 | 1015.2 |
| 20260905155929 | 29 | 171 | 4.8 | 9.7 | 0.00 | 0.00 | 0.00 | 80 | 1015.3 |
| 20260905155429 | 30 | 115 | 3.2 | 11.3 | 0.00 | 0.00 | 0.00 | 80 | 1015.4 |
| 20260905154930 | 30 | 161 | 3.2 | 11.3 | 0.00 | 0.00 | 0.00 | 78 | 1015.4 |
| 20260905154429 | 30 | 195 | 3.2 | 11.3 | 0.00 | 0.00 | 0.00 | 79 | 1015.4 |
| 20260905153929 | 30 | 179 | 3.2 | 11.3 | 0.00 | 0.00 | 0.00 | 77 | 1015.4 |
| 20260905153429 | 30 | 78 | 1.6 | 11.3 | 0.00 | 0.00 | 0.00 | 77 | 1015.5 |
| 20260905152930 | 30 | 113 | 1.6 | 11.3 | 0.00 | 0.00 | 0.00 | 77 | 1015.3 |
| 20260905152430 | 31 | 137 | 1.6 | 9.7 | 0.00 | 0.00 | 0.00 | 75 | 1015.4 |
| 20260905151929 | 31 | 121 | 1.6 | 8.0 | 0.00 | 0.00 | 0.00 | 74 | 1015.4 |
| 20260905151429 | 30 | 192 | 1.6 | 6.4 | 0.00 | 0.00 | 0.00 | 74 | 1015.5 |
| 20260905150930 | 31 | 252 | 1.6 | 6.4 | 0.00 | 0.00 | 0.00 | 73 | 1015.4 |
| 20260905150429 | 31 | 260 | 0.0 | 6.4 | 0.00 | 0.00 | 0.00 | 73 | 1015.5 |
| 20260905145929 | 31 | 272 | 0.0 | 4.8 | 0.00 | 0.00 | 0.00 | 72 | 1015.6 |
| 20260905145429 | 31 | 241 | 0.0 | 4.8 | 0.00 | 0.00 | 0.00 | 73 | 1015.4 |
| 20260905145154 | 31 | 196 | 0.0 | 3.2 | 0.00 | 0.00 | 0.00 | 73 | 1015.5 |
| 20260905144429 | 31 | 196 | 0.0 | 3.2 | 0.00 | 0.00 | 0.00 | 72 | 1015.7 |
| 20260905144154 | 31 | 171 | 0.0 | 3.2 | 0.00 | 0.00 | 0.00 | 76 | 1015.6 |
| 20260905142929 | 30 | 174 | 0.0 | 1.6 | 0.00 | 0.00 | 0.00 | 76 | 1015.6 |
| 20260905142656 | 31 | 174 | 0.0 | 1.6 | 0.00 | 0.00 | 0.00 | 74 | 1015.6 |
| 20260905141929 | 32 | 138 | 0.0 | 1.6 | 0.00 | 0.00 | 0.00 | 72 | 1015.6 |
| 20260905141429 | 31 | 136 | 0.0 | 1.6 | 0.00 | 0.00 | 0.00 | 76 | 1015.7 |
| 20260905140930 | 30 | 130 | 0.0 | 1.6 | 0.00 | 0.00 | 0.00 | 79 | 1015.6 |
| 20260905140429 | 30 | 350 | 0.0 | 4.8 | 0.00 | 0.00 | 0.00 | 79 | 1015.7 |
| 20260905135929 | 30 | 316 | 0.0 | 4.8 | 0.00 | 0.00 | 0.00 | 77 | 1015.7 |
| 20260905135429 | 31 | 309 | 0.0 | 1.6 | 0.00 | 0.00 | 0.00 | 76 | 1015.7 |
| 20260905134928 | 31 | 42 | 0.0 | 6.4 | 0.00 | 0.00 | 0.00 | 78 | 1015.6 |
| 20260905134429 | 30 | 31 | 1.6 | 6.4 | 0.00 | 0.03 | 0.00 | 79 | 1015.6 |
| 20260905133930 | 30 | 11 | 1.6 | 6.4 | 0.00 | 0.03 | 0.00 | 80 | 1015.7 |
| 20260905133429 | 30 | 319 | 0.0 | 3.2 | 0.00 | 0.03 | 0.00 | 79 | 1015.7 |
| 20260905132929 | 30 | 5 | 0.0 | 6.4 | 0.00 | 0.03 | 0.00 | 80 | 1015.6 |
| 20260905132430 | 30 | 301 | 0.0 | 6.4 | 0.00 | 0.03 | 0.00 | 80 | 1015.6 |
| 20260905131929 | 30 | 279 | 0.0 | 4.8 | 0.00 | 0.03 | 0.00 | 81 | 1015.6 |
| 20260905131433 | 30 | 22 | 0.0 | 3.2 | 0.00 | 0.03 | 0.00 | 80 | 1015.6 |
| 20260905130930 | 30 | 218 | 0.0 | 0.0 | 0.00 | 0.03 | 0.00 | 82 | 1015.6 |
| 20260905130429 | 29 | 218 | 0.0 | 0.0 | 0.00 | 0.08 | 0.00 | 82 | 1015.6 |
| 20260905125929 | 29 | 221 | 0.0 | 1.6 | 0.00 | 0.10 | 0.00 | 83 | 1015.5 |
| 20260905125429 | 29 | 211 | 0.0 | 1.6 | 0.00 | 0.10 | 0.00 | 83 | 1015.7 |
| 20260905125155 | 29 | 198 | 0.0 | 0.0 | 0.00 | 0.10 | 0.00 | 84 | 1015.7 |
| 20260905124429 | 28 | 198 | 0.0 | 1.6 | 0.00 | 0.10 | 0.00 | 85 | 1015.7 |
| 20260905123929 | 28 | 255 | 0.0 | 3.2 | 0.00 | 0.10 | 0.00 | 85 | 1015.7 |
| 20260905123428 | 28 | 238 | 0.0 | 3.2 | 0.00 | 0.10 | 0.00 | 86 | 1015.8 |
| 20260905122929 | 28 | 229 | 0.0 | 1.6 | 0.00 | 0.10 | 0.00 | 87 | 1015.6 |
| 20260905122429 | 28 | 229 | 0.0 | 0.0 | 0.00 | 0.10 | 0.00 | 88 | 1015.6 |
| 20260905121929 | 28 | 229 | 0.0 | 0.0 | 0.00 | 0.10 | 0.00 | 88 | 1015.7 |
| 20260905121429 | 27 | 229 | 0.0 | 0.0 | 0.00 | 0.10 | 0.00 | 89 | 1015.8 |
| 20260905120929 | 27 | 74 | 0.0 | 0.0 | 0.00 | 0.10 | 0.00 | 90 | 1015.7 |
| 20260905120428 | 27 | 47 | 0.0 | 3.2 | 0.00 | 0.10 | 0.00 | 90 | 1015.8 |
| 20260905115928 | 27 | 47 | 0.0 | 3.2 | 0.00 | 0.10 | 0.00 | 90 | 1015.5 |
| 20260905115430 | 27 | 49 | 0.0 | 0.0 | 0.00 | 0.10 | 0.00 | 91 | 1015.5 |
| 20260905114930 | 27 | 49 | 0.0 | 0.0 | 0.00 | 0.10 | 0.00 | 91 | 1015.5 |
| 20260905114428 | 27 | 41 | 0.0 | 0.0 | 0.00 | 0.10 | 0.00 | 90 | 1015.4 |
| 20260905113929 | 27 | 21 | 0.0 | 1.6 | 0.00 | 0.10 | 0.00 | 91 | 1015.4 |